TimeMST,TemperatureF,Dew PointF,Humidity,Sea Level PressureIn,VisibilityMPH,Wind Direction,Wind SpeedMPH,Gust SpeedMPH,PrecipitationIn,Events,Conditions,WindDirDegrees,DateUTC
12:53 AM,28.9,21.9,75,30.05,10.0,SW,6.9,-,N/A,,Clear,230,2013-01-26 07:53:00
1:53 AM,27.0,21.9,81,30.04,10.0,WSW,5.8,-,N/A,,Clear,250,2013-01-26 08:53:00
2:53 AM,28.9,21.9,75,30.01,10.0,West,5.8,-,N/A,,Clear,280,2013-01-26 09:53:00
3:53 AM,25.0,21.0,85,30.02,10.0,WNW,9.2,-,N/A,,Clear,300,2013-01-26 10:53:00
4:53 AM,24.1,19.9,84,30.04,10.0,West,5.8,-,N/A,,Clear,280,2013-01-26 11:53:00
5:53 AM,24.1,19.9,84,30.06,10.0,WNW,5.8,-,N/A,,Clear,300,2013-01-26 12:53:00
6:53 AM,24.1,19.9,84,30.07,10.0,West,9.2,-,N/A,,Clear,280,2013-01-26 13:53:00
7:53 AM,28.0,23.0,81,30.07,10.0,WNW,8.1,-,N/A,,Clear,290,2013-01-26 14:53:00
8:53 AM,37.0,27.0,67,30.04,10.0,NW,6.9,-,N/A,,Clear,310,2013-01-26 15:53:00
9:53 AM,48.0,28.9,48,30.02,10.0,WSW,4.6,-,N/A,,Clear,250,2013-01-26 16:53:00
10:53 AM,55.9,28.0,34,29.98,10.0,SW,8.1,-,N/A,,Clear,220,2013-01-26 17:53:00
11:53 AM,57.0,28.0,33,29.95,10.0,SW,8.1,-,N/A,,Clear,220,2013-01-26 18:53:00
12:53 PM,60.1,27.0,28,29.88,10.0,WSW,9.2,-,N/A,,Clear,250,2013-01-26 19:53:00
1:53 PM,60.1,27.0,28,29.87,10.0,WSW,10.4,-,N/A,,Clear,250,2013-01-26 20:53:00
2:53 PM,59.0,27.0,29,29.86,10.0,WSW,9.2,-,N/A,,Clear,250,2013-01-26 21:53:00
3:53 PM,57.9,27.0,31,29.86,10.0,WSW,4.6,-,N/A,,Clear,250,2013-01-26 22:53:00
4:53 PM,42.1,21.9,45,29.91,10.0,SSW,5.8,-,N/A,,Clear,210,2013-01-26 23:53:00
5:53 PM,41.0,24.1,51,29.91,10.0,South,6.9,-,N/A,,Clear,190,2013-01-27 00:53:00
6:53 PM,42.1,27.0,55,29.90,10.0,South,6.9,-,N/A,,Overcast,170,2013-01-27 01:53:00
7:53 PM,39.9,26.1,58,29.88,10.0,South,3.5,-,N/A,,Overcast,170,2013-01-27 02:53:00
8:53 PM,39.0,27.0,62,29.83,10.0,South,8.1,-,N/A,,Mostly Cloudy,170,2013-01-27 03:53:00
9:53 PM,39.0,27.0,62,29.77,10.0,South,5.8,-,N/A,,Overcast,190,2013-01-27 04:53:00
10:53 PM,41.0,27.0,57,29.74,10.0,South,8.1,-,N/A,,Overcast,170,2013-01-27 05:53:00
11:53 PM,39.9,34.0,79,29.73,10.0,South,9.2,-,0.00,Rain,Light Rain,190,2013-01-27 06:53:00